Location: Aufkirchen
(47.9603°N, 11.3653°E)
Time: 08:07:12
(UTC+01:00)

Transit 4A - Pass Details

Date: 02 December 2020
Orbit: 864 x 981 km, 66.8° (Epoch: 17 January)

Event Time Altitude Azimuth Distance (km) Brightness Sun altitude
Rises 16:31:48 0° 322° (NW) 3,682 11.1 -2.1°
Reaches altitude 10° 16:34:27 10° 318° (NW) 2,722 10.5 -2.4°
Maximum altitude 16:40:36 53° 244° (WSW) 1,163 9.0 -3.3°
Drops below altitude 10° 16:46:34 10° 169° (S) 2,639 10.5 -4.2°
Sets 16:49:06 0° 165° (SSE) 3,561 11.1 -4.6°
